Flag for Vietnam Weather past 2 weeks in Ho Chi Minh, Vietnam

Now
75 °F

Light rain. Overcast.


Feels Like: 73 °F
Forecast: 74 / 83 °F
Wind: 8 mph from Southwest

Location: Ho Chi Minh

Current Time: Jul 23, 2014 at 3:52:21 AM

Latest Report: Jul 23, 2014 at 12:00 AM


Visibility: 5 mi

Pressure: 29.80 "Hg

Humidity: 100%

Dew point: 75 °F

Location of Ho Chi MinhLocation

Historic Weather in Ho Chi Minh — Graph

°F

Ho Chi Minh temperature yesterday

Maximum temperature yesterday: 84 °F (at 10:30 AM)
Minimum temperature yesterday: 73 °F (at 3:00 AM)
Average temperature yesterday: 78 °F

Past Weeks' High & Low Weather Summary

 TemperatureHumidityPressure
High91 °F (Jul 11, 12:30 PM)100% (Jul 8, 4:00 AM)29.86 "Hg (Jul 8, 4:00 AM)
Low73 °F (Jul 13, 2:30 AM)52% (Jul 11, 3:00 PM)29.59 "Hg (Jul 8, 3:00 PM)
Average81 °F90%29.74 "Hg
* Reported Jul 8 4:00 AM — Jul 22 11:30 PM, Ho Chi Minh, Weather by CustomWeather, © 2014

Note: Actual official high and low records may vary slightly from our data, if they occured in-between our weather recording intervals... More about our weather records

Advertising

Ho Chi Minh weather history for previous 24 hours

 ConditionsComfort  
Time TempWeatherWind HumidityBarometerVisibility
11:30 PM
Jul 22
75 °FLight rain. Overcast.6 mph100%29.80 "Hg5 mi
11:00 PM77 °FOvercast.7 mph100%29.80 "HgN/A
10:30 PM75 °FOvercast.6 mph100%29.80 "HgN/A
10:00 PM77 °FOvercast.6 mph100%29.80 "HgN/A
9:30 PM77 °FOvercast.6 mph100%29.77 "HgN/A
9:00 PM77 °FOvercast.6 mph100%29.77 "HgN/A
8:30 PM77 °FOvercast.12 mph100%29.77 "HgN/A
8:00 PM77 °FOvercast.15 mph100%29.74 "HgN/A
7:30 PM77 °FPartly cloudy.14 mph100%29.74 "Hg5 mi
7:00 PM77 °FSprinkles. Partly cloudy.13 mph100%29.74 "Hg4 mi
6:30 PM79 °FPartly cloudy.14 mph100%29.71 "Hg5 mi
6:00 PM81 °FLight rain. Cloudy.12 mph100%29.71 "HgN/A
5:30 PM81 °FLight rain. Cloudy.12 mph100%29.71 "HgN/A
5:00 PM79 °FLight rain. Cloudy.14 mph100%29.68 "HgN/A
4:30 PM79 °FLight rain. Cloudy.13 mph100%29.68 "Hg5 mi
4:00 PM81 °FLight rain. Cloudy.13 mph100%29.68 "HgN/A
3:30 PM81 °FCloudy.15 mph94%29.68 "HgN/A
3:00 PM81 °FBroken clouds.9 mph100%29.68 "HgN/A
2:30 PM79 °FBroken clouds.12 mph100%29.68 "HgN/A
2:00 PM77 °FThunderstorms. Broken clouds.10 mph100%29.68 "Hg3 mi
1:30 PM77 °FThunderstorms. Broken clouds.14 mph100%29.71 "Hg1 mi
1:00 PM81 °FRain showers. Broken clouds.2 mph100%29.71 "Hg3 mi
12:30 PM81 °FLight rain. Broken clouds.5 mph100%29.71 "Hg5 mi
12:00 PM82 °FThunderstorms. Broken clouds.3 mph94%29.74 "Hg4 mi
11:30 AM84 °FBroken clouds.10 mph89%29.74 "HgN/A
11:00 AM84 °FBroken clouds.7 mph89%29.77 "HgN/A
10:30 AM84 °FBroken clouds.3 mph89%29.77 "HgN/A
10:00 AM82 °FBroken clouds.1 mph89%29.77 "HgN/A
9:30 AM81 °FPartly sunny.1 mph94%29.77 "HgN/A
9:00 AM81 °FPartly sunny.1 mph94%29.77 "HgN/A
8:30 AM79 °FPartly sunny.5 mph100%29.74 "HgN/A
8:00 AM77 °FPartly sunny.5 mph100%29.74 "HgN/A
7:30 AM75 °FMore clouds than sun.6 mph100%29.74 "HgN/A
7:00 AM75 °FMore clouds than sun.1 mph100%29.74 "HgN/A
6:30 AM73 °FMore clouds than sun.2 mph100%29.74 "HgN/A
6:00 AM73 °FLight rain. More clouds than sun.2 mph100%29.74 "HgN/A
5:30 AM73 °FLight rain. Overcast.2 mph100%29.74 "HgN/A
5:00 AM73 °FLight rain. Overcast.5 mph100%29.74 "HgN/A
4:30 AM73 °FLight rain. Overcast.6 mph100%29.74 "Hg6 mi
4:00 AM73 °FLight rain. Fog.7 mph100%29.77 "Hg5 mi
3:30 AM73 °FLight rain. Partly cloudy.10 mph100%29.77 "Hg4 mi
3:00 AM73 °FLight rain. Partly cloudy.14 mph100%29.74 "Hg5 mi
Weather by CustomWeather, © 2014

See weather overviewHow to use our weather pages